Location: ???????
(55.4362°N, 38.1183°E)
Time: 01:17:39
(UTC+00:00)

METEOR M2 - Pass Details

Date: 07 December 2021
Orbit: 818 x 827 km, 98.4° (Epoch: 28 January)

Event Time Altitude Azimuth Distance (km) Brightness Sun altitude
Rises 16:40:18 0° 192° (SSW) 3,356 ? -29.9°
Reaches altitude 10° 16:42:52 10° 202° (SSW) 2,426 ? -30.3°
Maximum altitude 16:47:42 34° 266° (W) 1,349 ? -31.0°
Drops below altitude 10° 16:52:35 10° 330° (NNW) 2,437 ? -31.7°
Sets 16:55:11 0° 340° (NNW) 3,374 ? -32.0°
